Regional Weather Roundup
Issued by NWS Wakefield, VA

Home | Current Version | Previous Version | Text Only | Print | Product List | Glossary Off
Versions: 1 2 3 4 5 6 7 8 9 10 11 12 13 14 15 16 17 18 19 20 21 22 23 24 25 26 27 28 29 30 31 32 33 34 35 36 37 38 39 40 41 42 43 44 45 46 47 48 49 50

714
ASUS41 KAKQ 100515
RWRAKQ

REGIONAL WEATHER ROUNDUP
NATIONAL WEATHER SERVICE WAKEFIELD VA
1200 AM EST WED FEB 10 2016

Note: "fair" indicates few or no clouds below 12,000 feet with no
significant weather and/or obstructions to visibility. * = Denotes
station may not report precipitation (e.g., rain,snow,etc.),
thunder or fog.

VAZ042-051-052>054-056-100600-
NORTHERN VIRGINIA

CITY           SKY/WX    TMP DP  RH WIND       PRES   REMARKS
WASH NATIONAL  CLOUDY    32  19  58 NW10      29.71R WCI  24
DULLES         CLOUDY    30  18  60 NW15      29.69S WCI  19
FORT BELVOIR   CLOUDY    32  19  56 W12       29.70S WCI  23
QUANTICO       CLOUDY    34  21  59 NW6       29.72S
FREDERICKSBRG* CLOUDY    32  29  88 NW6       29.71R
STAFFORD*      CLOUDY    32  20  61 NW8       29.75R
WARRENTON      CLOUDY    33  22  63 NW10      29.70R WCI  25
CULPEPER*      CLOUDY    32  16  51 NW7       29.71S
MANASSAS*      CLOUDY    32  21  64 NW5       29.71R
LEESBURG*      CLOUDY    32  25  74 NW14G21   29.70S WCI  22
WINCHESTER     CLOUDY    30  19  64 W7        29.70S
FRONT ROYAL*   CLOUDY    30  16  55 W5        29.70R
LURAY*         CLOUDY    28  16  59 SW7       29.71S
$$

VAZ048-049-060>072-079>083-100600-
CENTRAL AND SOUTH CENTRAL VIRGINIA

CITY           SKY/WX    TMP DP  RH WIND       PRES   REMARKS
RICHMOND       CLOUDY    32  17  54 W13       29.72S WCI  22
CHESTERFIELD*  CLOUDY    30   9  40 W8        29.74S
PETERSBURG*    FAIR      31  13  47 SW8       29.75S
HANOVER        FLURRIES  33  18  53 W12       29.73S WCI  24
TAPPAHANNOCK*  CLOUDY    34  34 100 W3        29.71S
QUINTON*       CLOUDY    33  17  52 SW7       29.72S
CHARLOTTSVILLE CLOUDY    31  13  47 VRB7      29.71R
GORDONSVILLE*  CLOUDY    32  17  52 W5        29.70R
ORANGE*        CLOUDY    32  23  69 CALM      29.72R
LOUISA*        CLOUDY    34  18  51 W5        29.69S
BUMPASS*       CLOUDY    31  26  83 CALM      29.71R
FARMVILLE*     FAIR      30  13  49 W6        29.73S
CREWE*         FAIR      28  14  54 W5        29.74S
FORT PICKETT*  FAIR      28  13  53 W9        29.74F
CHASE CITY*    FAIR      28  10  46 W9        29.77F
CLARKSVILLE*   FAIR      28  12  50 W8        29.79S
SOUTH HILL*    FAIR      28  12  51 W10       29.82F WCI  19
LAWRENCEVILLE* FAIR      29  13  50 W8        29.76S
EMPORIA*       FAIR      30  14  51 W7        29.79S
$$

VAZ088>098-100600-
SOUTHEAST VIRGINIA

CITY           SKY/WX    TMP DP  RH WIND       PRES   REMARKS
NORFOLK        CLOUDY    37  16  42 W7G17     29.73R
VIRGINIA BEACH MOCLDY    40  16  37 W16G25    29.72S
NORFOLK NAVAL  CLOUDY    37  18  46 W17G24    29.74S
WEST POINT*    CLOUDY    33  20  59 W10       29.73F
SALUDA*        CLOUDY    32  26  78 SW6       29.71S
NEWPORT NEWS   CLOUDY    34  19  54 W13G22    29.73S WCI  25
LANGLEY AFB    CLOUDY    35  20  53 W14       29.72R
FORT EUSTIS    FAIR      34  16  47 W13       29.71S WCI  25
WILLIAMSBURG*  FAIR      36  21  55 W10       29.74S
HR EXEC AP*    CLOUDY    36  18  48 W9        29.76S
FRANKLIN*      MOCLDY    33  17  50 W13G20    29.76S WCI  24
US460-WAKEFLD  FAIR      32  16  51 VRB7      29.75S
$$

VAZ020-022-025-037-045-100600-
WEST CENTRAL AND SOUTHWEST VIRGINIA

CITY           SKY/WX    TMP DP  RH WIND       PRES   REMARKS
STAUNTON*      CLOUDY    31  15  51 W6        29.73S
WAYNESBORO*    CLOUDY    26  11  54 W7        29.71R
HOT SPRINGS VA LGT SNOW  14  14 100 W20G29    29.55F WCI  -4
LYNCHBURG      CLOUDY    25  12  58 VRB6      29.76S
DANVILLE       FAIR      28  11  48 W12       29.81F WCI  18
SOUTH BOSTON*  FAIR      28  10  48 W7        29.80S
MARTINSVILLE   MOCLDY    21  10  61 CALM      29.83F
ROANOKE        FAIR      24  11  57 NW10G24   29.80S WCI  14
BLACKSBURG     CLOUDY    21  14  75 W14G25    29.77S WCI   8
DUBLIN*        CLOUDY    23  16  75 W9        29.77S
MARION*        FLURRIES  19  13  77 W20       29.79S WCI   3
HILLSVILLE*    CLOUDY    18  12  79 NW18G24   29.70F WCI   2
RICHLANDS*     FLURRIES  17  11  78 W8        29.79S
WISE*          LGT SNOW  19  12  73 W5        29.82R
ABINGDON*      CLOUDY    22  14  70 W8        29.85S
$$

MDZ021>025-VAZ099-100-100600-
SOUTHERN MARYLAND AND THE DELMARVA PENINSULA

CITY           SKY/WX    TMP DP  RH WIND       PRES   REMARKS
PATUXENT RIVER CLOUDY    33  21  61 NW12      29.69R WCI  24
BAY BRIDGE APT   N/A     32  25  74 W9        29.68S
LEONARDTOWN    CLOUDY    32  21  64 W6        29.70S
DOVER          CLOUDY    34  34 100 W9        29.64R
GEORGETOWN     CLOUDY    34  30  85 W6        29.66R
EASTON         CLOUDY    34  27  76 NW9       29.71S
CAMBRIDGE      CLOUDY    32  25  74 W7        29.68R
SALISBURY      CLOUDY    34  27  75 W7        29.66S
OCEAN CITY     CLOUDY    35  31  85 NW7       29.66S
WALLOPS ISLAND CLOUDY    35  33  92 NW6       29.68S
ACCOMACK*      CLOUDY    34  32  93 W6        29.69S
$$

NCZ012>017-030>032-100600-
NORTH CENTRAL AND EASTERN NORTH CAROLINA

CITY           SKY/WX    TMP DP  RH WIND       PRES   REMARKS
ROANOKE RAPIDS FAIR      32  18  55 W7        29.78S
RALEIGH        PTCLDY    29  12  49 W7        29.82S
ELIZABETH CITY CLOUDY    37  25  61 W12       29.75S
AHOSKIE*       CLEAR     32  18  56 CALM      29.77S
EDENTON*       MOCLDY    39  22  51 W9        29.77F
CURRITUCK*     CLOUDY    38  24  55 W7        29.75S
KILL DEVIL HLS CLOUDY    39  26  59 W14G21    29.73F
MANTEO         CLOUDY    39  28  65 W10       29.76S
CAPE HATTERAS  PTCLDY    41  25  53 W15G25    29.78R
TARBORO*       FAIR      34  16  47 W12       29.81R
GOLDSBORO      MOCLDY    34  12  40 W17G26    29.82R WCI  23
WASHINGTON     CLOUDY    36  24  60 W6        29.80R
GREENVILLE     CLOUDY    36  18  48 W7        29.84R
NEW BERN       CLOUDY    38  22  52 W10       29.82S
WILMINGTON     CLOUDY    39  25  57 SW14      29.86R
$$

VAZ048-100600-
ELSEWHERE

CITY           SKY/WX    TMP DP  RH WIND       PRES   REMARKS
HARRISBURG PA  FLURRIES  31  25  78 W12       29.63S WCI  22
BALTIMORE      CLOUDY    31  22  69 W15G25    29.67R WCI  20
ANNAPOLIS      CLOUDY    33  23  66 W8G20     29.68S
ANDREWS AFB    CLOUDY    31  20  62 NW10G22   29.68R WCI  22
PHILADELPHIA   CLOUDY    35  31  85 W6        29.63S
HENDERSON NC   CLEAR     28  11  48 W6        29.79S
GREENSBORO     PTCLDY    25  11  55 W10       29.81S WCI  15
ROCKY MOUNT    PTCLDY    32  15  49 W10       29.82R WCI  24
$$

VAZ100-100600-
MARINE

STATION/POSITION TIME  TEMP    WIND        PRES    WAVE   SWELL
                       AIR SEA DIR/SP/G            HT/PER HT/PER
                 (UTC) (F)     (DEG/KT/KT) (MB)    (FT/S) (FT/S)
BRANDYWINE LGT   0400   35     300/ 19/ 22 1003.5R
CAPE MAY NJ      0400   36 43  300/  9/ 15 1003.2R
LEWES DE         0400   36 41  290/ 12/ 13 1003.8R
15NM E FENWICK I 0450   37 43              1003.4R   5/12
OCEAN-CITY-INLET 0400   36 41  310/  8/ 11 1003.4R
WACHAPREAGUE VA  0400   36 43  260/  3/  6 1005.3R
GOOSES REEF MD   0500   34 40  320/ 14/ 17 1006.3R   2/ 3
COVE POINT MD    0400   34     330/ 12/ 15 1005.7S
SOLOMONS ISLAND  0400   35 41  300/  9/ 13   N/A
BISHOPS HEAD MD  0400   37 41  310/ 13/ 16 1003.9S
PINEY POINT MD   0400          340/ 19/ 21   N/A
POTOMAC MD       0500   36 41  330/ 14/ 16 1004.5R   1/ 2
CAMBRIDGE MD     0400   36 40  300/ 10/ 14 1004.0R
LEWISETTA VA     0400   35 41  300/  7/  8 1005.2R
RAPPAHANNOCK LGT 0400          290/ 13/ 14 1005.9R
STINGRAY PT      0500   36 42  280/ 14/ 17 1005.5S   1/ 2
YORK RVR RNG VA  0400   38     280/ 22/ 27 1004.8F
YORKTOWN VA      0400   37 43  270/ 13/ 17 1005.9R
JAMESTOWN VA     0500   33 44  250/ 14/ 17   N/A     1/ 3
DOMINION TERM VA 0400   38     290/ 19/ 25 1006.2R
KIPTOPEKE VA     0400      43  280/ 19/ 22   N/A
CHES BAY BRIDGE  0400   38 43  240/ 19/ 24 1006.0R
CAPE HENRY VA    0400   38     260/ 16/ 22   N/A
CHESAPEAKE LGHT  0400   39     280/ 25/ 28 1006.6R
WILLOUBY STN VA  0400   38     280/ 21/ 24   N/A
CAPE HENRY BUOY  0428      45                N/A     5/14   3/14
1ST LANDING BUOY 0500      43                N/A     3/ 4
CAPE CHARLES BUO 0426      44                N/A     6/14   5/14
OFFSHORE WE BUOY 0421      46                N/A     7/14   7/14
64NM E OF VA BCH 0450   43 50  270/ 23/ 29 1005.0R  10/14   7/14
DUCK PIER NC     0400   40     270/ 16/ 21 1006.6R
44100 DUCK FRF   0424      47                N/A     7/14   7/14
44056 DUCK FRF   0411      45                N/A     5/14   5/14
OREGON INLET NC  0400   41 46  260/ 15/ 20 1007.4R
HATTERAS NC      0400   43 51  270/ 26/ 30 1007.7R
DIAMOND SHLS NC  0450   45 73  280/ 23/ 29 1008.0R   9/14   7/14
$$




USA.gov is the U.S. government's official web portal to all federal, state and local government web resources and services.